Theta_e
349 350 342 343 342 350 345 341 340 339 339 341 342 342 349 349 349 350 351 361 359 359 364 363 361 359 361 361 361 358 356 356 354 355 354 353 355 353 351 349 351 352 351
349 348 342 342 341 345 341 338 337 338 338 339 340 339 341 348 349 348 351 353 360 359 361 363 362 361 359 362 362 361 358 357 357 358 357 356 356 356 354 354 351 352 352
352 350 347 343 343 345 344 342 340 338 335 338 337 341 344 349 351 351 349 351 355 359 360 361 362 363 361 358 359 360 361 359 358 358 358 357 356 356 356 355 355 354 353
352 351 349 346 344 342 339 336 337 333 332 333 337 339 341 347 351 352 351 350 352 352 358 360 360 361 362 361 357 360 360 359 358 358 357 357 356 356 356 355 355 355 354
352 350 349 349 347 346 339 335 334 332 335 336 338 338 343 345 348 352 351 352 350 353 351 356 358 358 360 361 360 361 361 359 357 357 357 358 357 356 355 355 354 355 354
344 346 349 350 345 344 341 338 334 334 335 341 345 345 342 339 345 347 350 352 350 351 353 352 352 354 360 360 360 360 359 357 357 357 358 357 357 355 354 354 354 353 353
339 339 348 346 345 343 343 343 343 340 339 340 339 333 341 343 345 346 348 349 350 351 350 351 350 350 352 358 357 356 358 356 355 355 356 357 357 356 355 353 351 352 351
339 347 345 344 344 342 340 342 342 338 337 340 332 329 327 331 339 345 345 346 347 349 350 352 351 349 348 351 353 356 356 357 356 356 356 354 356 355 355 354 352 351 350
349 345 344 342 342 342 341 341 339 337 335 339 340 334 326 323 329 337 341 344 343 347 348 352 350 348 348 347 350 351 354 354 356 357 358 355 354 354 354 353 352 351 350
346 345 344 344 343 343 341 342 343 339 337 333 337 341 339 337 326 324 334 339 342 345 347 345 346 348 348 349 352 351 350 348 352 354 355 356 354 353 353 352 351 350 348
344 345 345 345 343 343 342 342 341 339 338 336 335 335 334 336 337 328 324 329 339 343 345 347 348 345 347 347 348 345 344 343 347 350 352 354 354 354 354 354 354 353 351
342 344 346 344 343 342 341 342 341 340 338 339 339 338 334 332 332 332 327 327 327 333 338 343 343 341 345 342 350 343 342 343 345 346 348 350 351 352 356 356 355 355 354
340 341 343 343 343 342 342 341 340 339 338 336 337 337 337 336 337 336 331 327 327 332 335 336 340 342 347 346 344 344 344 342 342 341 341 343 345 345 347 349 350 351 353
339 341 341 342 343 344 343 341 341 339 339 338 337 337 337 339 340 338 333 328 326 327 330 331 340 340 342 342 345 344 340 339 338 336 337 337 338 338 340 342 343 343 344
341 339 340 340 342 344 343 341 340 339 340 339 338 337 336 338 341 340 340 335 328 322 323 330 331 336 336 336 336 333 334 335 332 333 332 333 334 337 338 339 338 338 339
341 340 341 340 339 341 342 340 340 340 338 339 340 337 340 340 341 339 338 337 337 329 323 331 333 332 332 332 333 329 330 330 330 329 328 328 329 330 331 332 333 334 335
338 338 340 340 338 336 336 335 335 335 334 333 337 337 337 338 337 337 337 336 334 332 326 332 333 329 327 325 324 324 324 323 324 325 324 323 322 322 324 325 326 327 328
338 337 338 337 336 337 335 332 330 330 330 329 331 331 333 334 331 332 334 333 333 333 329 327 327 323 322 321 320 320 321 322 321 324 322 321 320 318 317 317 317 316 317
334 333 335 333 331 334 334 333 330 328 327 327 327 326 327 330 328 330 330 330 329 331 329 328 324 323 322 320 318 318 318 319 321 322 320 320 319 318 317 315 313 311 310
334 332 332 332 328 328 332 332 329 327 326 323 322 321 321 322 327 327 326 327 327 326 325 324 323 321 321 322 320 315 313 316 314 316 317 315 316 317 316 315 313 311 309
333 333 330 327 326 324 327 331 330 328 325 323 320 319 319 325 327 327 323 323 324 322 320 319 320 319 320 320 318 316 312 312 313 314 312 312 310 309 310 311 311 311 310
334 331 327 325 322 321 319 323 329 327 327 325 321 319 319 320 321 321 320 322 324 319 318 316 319 317 317 319 317 314 312 311 309 316 311 310 311 308 306 306 311 310 310
333 328 325 323 318 314 315 318 326 325 324 324 323 317 315 317 315 309 311 312 315 321 322 320 315 317 317 319 318 314 316 311 310 311 308 308 310 309 311 308 310 310 310
330 328 324 319 314 311 312 312 322 320 316 313 314 317 313 311 312 307 303 301 300 304 310 312 310 307 308 316 316 315 311 309 309 310 311 306 304 306 310 306 311 310 309
330 327 327 321 313 307 309 309 318 318 314 310 309 310 310 308 311 314 307 303 301 301 308 311 311 311 313 314 314 316 310 308 306 307 311 305 303 301 303 304 305 310 308
329 324 320 316 315 307 306 306 313 317 312 310 308 306 310 306 306 310 311 308 304 303 303 304 304 306 309 310 314 307 305 305 306 304 305 307 304 303 300 304 305 305 303
Wind_Speed
5 4 3 2 1 3 3 4 4 4 4 1 3 6 6 6 6 2 5 21 16 17 18 20 20 18 17 16 15 16 15 14 14 12 12 11 10 11 11 11 10 10 11
4 3 3 3 3 3 4 5 5 6 5 5 2 3 5 8 6 5 4 7 13 15 16 20 20 19 19 17 16 16 16 15 14 13 13 12 11 11 12 12 13 12 11
7 6 4 3 3 3 5 3 2 3 3 3 1 3 4 8 6 6 5 5 7 18 20 20 20 19 19 18 17 16 16 16 15 15 14 13 12 12 14 13 13 13 12
8 5 5 5 5 4 4 4 4 3 2 2 4 4 3 10 8 7 5 5 6 7 15 21 20 19 20 20 19 18 17 17 15 14 14 15 14 15 15 15 14 13 13
5 4 4 5 3 5 3 3 3 2 2 3 4 3 6 5 6 8 9 7 7 6 6 14 19 19 21 23 20 19 18 16 15 16 15 16 18 16 15 15 16 15 15
2 5 3 4 2 4 5 5 5 6 4 4 6 7 6 7 6 6 8 9 7 7 7 8 9 11 19 21 21 19 16 15 14 14 15 17 17 15 16 16 16 16 16
1 4 4 4 4 3 5 7 8 8 6 4 1 3 4 10 8 9 6 7 8 8 7 6 5 5 8 19 19 18 19 18 16 16 15 15 15 16 16 18 17 17 17
5 6 3 4 5 4 4 4 4 3 3 5 2 4 5 5 5 7 5 5 8 4 5 5 5 6 6 5 10 17 17 17 17 16 17 17 15 16 17 16 16 17 17
6 4 1 1 4 4 4 5 4 6 5 5 9 6 4 5 2 3 4 4 5 4 5 5 6 6 7 7 8 9 17 18 17 17 17 17 16 17 18 18 18 16 16
4 5 5 3 3 3 4 5 4 4 5 5 3 4 3 3 3 3 3 2 3 5 5 4 4 5 6 3 8 10 8 11 13 17 21 22 20 17 18 20 21 20 19
7 6 6 5 4 3 5 5 5 4 4 4 4 2 3 3 4 3 3 3 2 4 4 4 4 4 5 4 4 6 10 16 20 19 21 21 20 20 18 20 20 21 21
4 6 6 5 5 4 4 4 5 5 4 4 4 3 4 3 2 2 2 3 2 3 1 2 2 3 3 2 4 13 9 10 12 14 16 15 17 18 14 17 19 21 22
4 6 6 5 4 4 5 3 3 4 3 3 4 3 3 3 2 1 3 2 2 2 1 3 3 4 3 5 7 7 9 6 5 10 8 5 8 10 10 9 10 12 17
3 6 6 5 6 6 5 2 3 2 3 3 4 3 3 3 2 2 3 3 1 1 1 3 7 7 7 6 10 10 4 5 2 2 3 2 5 4 4 4 3 4 5
3 5 5 6 7 8 7 5 4 4 4 2 3 3 2 3 2 2 2 3 4 2 1 2 4 6 6 6 8 5 4 7 8 8 8 9 9 8 6 7 7 7 7
5 6 5 6 7 8 8 8 8 8 7 5 4 4 3 2 3 1 0 1 3 4 2 2 6 5 6 5 8 6 8 12 15 14 14 14 13 11 11 11 11 11 11
6 5 5 8 8 8 8 9 10 9 9 8 9 8 8 7 5 4 3 1 1 2 3 3 3 4 4 7 6 7 8 7 8 17 17 18 18 18 18 18 17 17 18
5 5 6 7 7 9 8 10 10 9 10 10 9 10 9 6 7 5 3 4 3 3 3 5 4 3 4 6 7 7 6 6 8 16 18 20 20 20 20 18 18 19 19
6 6 6 7 7 8 8 9 8 9 9 9 8 8 8 7 7 6 6 5 4 4 4 5 4 3 2 3 6 6 6 6 6 13 16 20 19 19 18 18 17 16 14
5 5 6 7 7 7 7 8 8 8 9 7 7 7 7 6 6 5 5 5 4 5 6 6 5 4 2 3 3 4 4 3 4 5 11 12 13 17 16 16 15 15 14
4 5 7 7 7 7 5 6 6 5 5 6 6 6 6 10 14 11 4 5 5 5 5 5 4 3 2 2 2 3 3 3 3 2 4 4 4 4 6 11 12 14 14
5 6 7 7 7 5 9 9 4 4 4 5 5 5 6 10 12 15 15 17 9 5 5 4 4 4 3 3 3 3 4 3 2 3 3 3 2 3 3 3 10 11 12
6 7 6 6 7 6 11 9 5 5 6 6 5 6 7 6 8 7 12 14 15 14 10 6 5 3 3 1 4 3 2 2 2 4 4 2 1 2 2 2 7 8 9
5 5 6 6 6 6 11 12 7 7 6 7 7 6 7 7 6 6 7 8 7 7 6 5 6 5 4 3 3 3 2 3 3 1 2 2 1 2 1 2 4 6 7
5 4 6 7 7 6 11 9 4 6 6 7 6 7 6 6 10 3 6 6 6 4 6 6 6 6 9 12 7 4 2 3 2 2 3 3 3 3 3 2 3 7 7
6 7 9 7 8 6 10 11 3 4 5 4 5 6 10 6 9 8 5 5 4 2 1 2 3 3 5 8 9 5 0 3 3 2 3 2 3 3 1 2 3 3 3
Wind_Direction
224 233 134 110 263 134 163 149 158 168 159 135 60 357 265 229 250 209 202 200 200 204 195 194 194 192 194 195 197 198 203 204 199 197 197 200 200 202 203 201 214 204 192
233 216 184 184 176 170 169 178 191 213 214 176 145 300 307 268 223 228 185 228 201 202 204 205 199 196 198 197 202 201 203 207 208 205 203 205 205 202 210 209 210 205 209
222 210 187 190 216 186 158 166 198 266 259 96 179 263 303 269 235 221 201 198 209 209 206 214 205 198 199 198 204 206 203 205 205 207 211 211 210 208 209 216 216 213 214
219 199 191 203 208 192 162 178 178 230 287 231 200 223 265 267 231 235 221 188 196 213 217 218 212 203 202 199 204 210 208 206 206 207 213 216 215 213 211 212 219 215 215
306 227 232 238 191 166 185 188 200 159 205 233 271 264 244 236 234 227 222 214 211 201 208 223 221 214 206 206 207 209 212 211 212 209 212 218 222 221 215 215 220 221 216
185 328 267 271 274 194 171 204 205 208 217 220 231 232 218 231 234 223 210 210 219 212 200 203 215 222 216 210 209 209 214 208 217 221 219 226 228 228 221 222 222 222 220
244 268 263 276 281 246 232 189 198 214 210 198 179 319 280 230 230 236 214 197 209 217 217 190 197 203 216 220 214 211 216 222 222 225 229 231 229 226 224 227 227 224 223
244 246 243 245 264 282 265 241 224 184 212 146 155 78 302 303 257 237 216 186 203 205 221 218 190 193 202 205 217 221 226 233 238 234 234 237 231 226 223 226 232 230 225
237 247 304 284 258 252 269 270 231 194 208 191 195 170 207 223 289 327 211 192 207 206 219 226 194 198 197 197 214 234 250 245 246 246 251 242 236 225 223 225 228 228 227
360 27 339 345 294 266 255 259 269 218 175 213 217 214 199 163 170 334 332 235 239 234 229 242 200 197 214 230 211 222 259 337 295 275 262 255 241 234 231 230 231 226 227
51 16 349 344 315 261 255 246 259 254 204 172 169 166 197 210 212 164 229 282 328 248 233 219 205 157 123 105 97 58 8 360 354 340 319 280 254 246 245 241 238 237 233
29 16 349 333 310 281 282 257 246 250 229 186 181 182 175 181 198 172 182 234 181 289 76 19 141 86 112 167 111 65 335 2 344 329 308 306 314 277 259 254 249 247 245
19 348 342 342 329 325 294 276 246 242 197 173 188 197 202 210 156 165 197 181 189 280 121 26 4 100 86 95 99 128 194 204 284 309 304 288 285 283 281 287 283 272 260
21 355 342 347 346 353 359 16 7 60 110 150 198 196 200 226 174 174 192 133 317 336 348 138 57 65 85 88 106 108 95 119 196 290 300 299 278 290 288 265 280 291 282
39 2 359 7 12 14 16 54 35 26 52 336 268 201 207 247 251 216 233 161 152 173 270 342 106 65 73 85 100 97 78 77 73 63 54 54 51 48 58 70 71 74 74
45 17 6 36 30 24 28 41 46 37 50 24 25 50 26 324 291 283 91 161 177 159 157 85 64 106 90 83 91 75 74 62 59 58 57 51 51 50 53 63 67 67 66
50 18 18 52 41 45 39 48 51 42 47 39 34 43 39 33 37 36 47 44 102 143 137 101 96 97 92 97 80 66 61 58 58 63 63 62 58 54 52 53 55 57 61
56 37 42 50 47 49 49 56 53 45 44 42 35 41 40 34 28 23 48 59 69 56 123 129 108 108 78 83 88 88 79 73 71 71 72 72 70 67 63 61 63 63 62
55 35 68 61 50 54 59 62 62 57 55 51 44 43 30 31 32 28 29 34 30 32 35 110 102 91 107 106 89 75 62 56 58 62 59 63 65 69 69 66 63 62 60
67 40 71 70 57 43 57 70 67 58 57 51 40 41 37 37 39 37 38 47 63 74 72 84 89 105 114 141 117 111 87 58 76 52 62 65 59 61 63 63 66 65 61
73 60 71 62 57 41 38 67 78 87 88 79 60 55 51 65 61 58 57 34 60 74 81 86 81 73 85 134 121 118 108 115 89 95 73 50 48 50 50 59 69 73 72
82 80 77 77 66 57 16 38 64 93 102 97 105 81 62 56 58 50 47 48 54 100 96 112 107 101 84 105 120 142 148 176 124 181 97 69 45 55 43 41 80 81 79
107 89 88 84 74 37 11 11 50 68 55 54 79 75 58 42 50 50 39 40 41 49 63 91 97 75 95 109 142 166 183 101 127 163 134 133 134 100 92 85 99 96 88
115 115 108 100 80 28 10 18 59 86 71 53 48 71 68 44 34 82 71 60 47 48 58 79 92 98 94 80 127 142 130 103 80 189 181 133 178 134 176 179 142 127 115
127 121 109 107 89 31 4 10 58 99 92 78 66 56 56 40 5 106 97 86 64 50 36 66 110 117 82 66 63 111 147 161 172 183 198 133 194 162 196 195 209 176 146
102 101 85 70 73 48 8 360 63 123 106 101 77 63 47 41 20 47 136 139 116 262 104 10 353 15 40 58 65 78 105 129 142 73 291 159 153 148 332 227 183 187 163